Content
SEND FEEDBACK

Daily
Averages
Monthly
Summary
Mexico

LEONA VICARIO, QUINTANA ROO


Home > North America > Mexico > Quintana Roo
Elevation: 26 feet     Latitude: 20 59N     Longitude: 087 12W

WEATHER
 
SELECT A DAY
Number of Records: 167,127;   Date Range: 1/1/95 - 11/22/14
 
SHARE

PRINT THIS DATA

[ ← Previous Day ]
WEATHER ALMANAC - JULY 4, 2014
[ Next Day → ]
[ °C ]   °F
Weather ElementAverageHighLow
Temperature82.8 °F87.8 °F (11:46 am)77 °F (5:46 am)
Dewpoint76.5 °F78.8 °F (7:43 am)75.2 °F (3:48 am)
Humidity81.9 %94 % (1:44 am)66 % (1:44 pm)
Barometer30.07 in30.11 in (10:43 am)30.01 in (3:48 am)
Wind Speed5.2 mph11.5 mph (2:42 pm)
Weather ElementAverage
Visibility7 mi
Wind DirectionENE (74.3 °)

Weather ElementTotal
Precipitation---
Cooling Degree Days17.4 (Base 65)
Growing Degree Days32.4 (Base 50)
Averaged from 23 records on July 4, 2014
WEATHER CONDITIONS BREAKOUT
WIND DIRECTION BREAKOUT
WEATHER BY HOUR - JULY 4, 2014
[ °C ]   °F
Local TimeTemperatureDewpointHumidityBarometerVisibilityWind DirectionWind SpeedGust SpeedPrecipitationEventsConditions
1:44 AM78.8 °F77.0 °F94 %30.07 in7.0 miESE (120°)5.8 mphMostly Cloudy
2:43 AM78.8 °F77.0 °F94 %30.06 in7.0 miESE (120°)5.8 mphMostly Cloudy
3:48 AM78.8 °F75.2 °F89 %30.01 in7.0 miESE (110°)5.8 mphMostly Cloudy
4:47 AM78.8 °F75.2 °F89 %30.06 in7.0 miCalmScattered Clouds
5:46 AM77.0 °F75.2 °F94 %30.06 in7.0 miCalmScattered Clouds
6:45 AM77.0 °F75.2 °F94 %30.04 in7.0 miCalmScattered Clouds
7:43 AM82.4 °F78.8 °F89 %30.08 in7.0 miCalmMostly Cloudy
8:44 AM84.2 °F77.0 °F79 %30.10 in7.0 miEast (80°)6.9 mphMostly Cloudy
9:43 AM86.0 °F77.0 °F74 %30.08 in7.0 miEast (80°)8.1 mphMostly Cloudy
10:43 AM86.0 °F77.0 °F74 %30.11 in7.0 miEast (90°)5.8 mphMostly Cloudy
11:46 AM87.8 °F77.0 °F70 %30.11 in7.0 miEast (90°)6.9 mphMostly Cloudy
12:41 PM87.8 °F77.0 °F70 %30.08 in7.0 miENE (70°)6.9 mphMostly Cloudy
1:44 PM87.8 °F75.2 °F66 %30.09 in7.0 miNE (50°)10.4 mphMostly Cloudy
2:42 PM87.8 °F77.0 °F70 %30.08 in7.0 miENE (60°)11.5 mphMostly Cloudy
3:40 PM87.8 °F77.0 °F70 %30.04 in7.0 miESE (110°)5.8 mphMostly Cloudy
4:41 PM86.0 °F75.2 °F70 %30.05 in7.0 miEast (90°)6.9 mphScattered Clouds
5:45 PM84.2 °F75.2 °F74 %30.05 in7.0 miENE (60°)8.1 mphScattered Clouds
6:43 PM82.4 °F77.0 °F84 %30.03 in7.0 miNE (50°)4.6 mphMostly Cloudy
7:41 PM82.4 °F77.0 °F84 %30.06 in7.0 miNE (40°)3.5 mphScattered Clouds
8:44 PM80.6 °F77.0 °F89 %30.07 in7.0 miNorth (360°)5.8 mphScattered Clouds
9:46 PM80.6 °F77.0 °F89 %30.06 in7.0 miNE (40°)3.5 mphMostly Cloudy
10:43 PM80.6 °F77.0 °F89 %30.10 in7.0 miNE (50°)3.5 mphMostly Cloudy
11:42 PM80.6 °F77.0 °F89 %30.10 in7.0 miNE (40°)3.5 mphMostly Cloudy
Hourly data recorded from MMUN, located miles away from Leona Vicario, Quintana Roo







STORIES FROM OUR PARTNERS